CAPE
1446 1542 1454 1503 1618 1936 2173 2220 2284 2253 2181 2325 2368 2442 2690 2938 3046 3024 3170 3162 3024 2982 2852 2833 2984 3039 3087 3238 3086 2654 2636 2679 2639 2704 2594 2511 2445 2483 2520 2576 2536 2394 2350 2311 2346 2334 2346 2372 2349 2328 2440 2604 2361 2366 2597 2480 2406 2503 2634 2768 2509 2430 2497 2383 2650 2706 2373 2233 2235 2337 2291 2340 2196 2112 2063 2304 2288 2258 2098 2024 1751 1621 1644 1692 1833
1247 1592 1500 1693 2054 2052 2152 2260 2074 2198 2689 2606 2530 2575 2739 2826 2818 2795 2885 2923 2899 2808 2902 3014 3118 3129 2989 2862 2776 2670 2645 2557 2588 2558 2503 2423 2392 2420 2439 2363 2391 2513 2552 2559 2577 2553 2560 2622 2548 2458 2817 2410 2310 2156 2393 2128 2290 2246 2324 2292 2308 2554 2570 2467 2614 2670 2712 2581 2412 2410 2473 2259 2298 2171 2279 2273 2293 2453 2347 2316 1940 1732 2013 2055 2096
1348 1657 1770 1897 2184 2146 2215 1925 1891 2517 2665 2621 2803 2869 2833 2749 2770 2809 2690 2865 2830 2889 2869 2897 2952 2972 2906 2782 2630 2660 2639 2299 2385 2660 2361 2401 2340 2288 2270 2331 2375 2490 2610 2571 2528 2586 2496 2503 2538 2520 2364 2509 2516 2254 2469 2490 2222 2130 1992 2210 2449 2234 1975 2381 2531 2563 2662 2596 2464 2504 2458 2290 2124 2135 2496 2411 2464 2356 2370 2281 2162 2225 2180 2344 1963
1379 1378 1717 2004 2216 2388 2140 2062 2228 2236 2554 2687 2792 2881 2892 2903 2813 2667 2713 2654 2764 2840 2825 2907 2913 2908 2798 2672 2700 2647 2334 1975 2290 2388 2401 2318 2267 2324 2312 2296 2291 2421 2425 2274 2526 2512 2468 2529 2440 2390 2410 2684 2304 2495 2435 2228 2327 2148 2235 2314 2289 2272 2130 2156 2346 2258 2301 2364 2318 2346 2291 1922 2193 2267 2309 2278 2420 2452 2514 2557 2544 2716 2666 2465 2277
1370 1326 1895 2088 2268 2484 2234 2164 2438 2499 2683 2716 2644 2851 2789 2667 2603 2676 2699 2831 2972 2927 2903 2867 2808 2660 2671 2795 2764 2633 2440 2157 2443 2576 2502 2402 2348 2228 2373 2425 2342 2578 2626 2546 2226 2568 2155 2596 2424 2430 2632 2560 2505 2384 2235 2374 2431 2310 2328 2304 2404 2009 2275 2391 2197 1980 2166 2315 2312 2286 2063 2009 2113 2166 2094 2252 2258 2103 2340 2354 2637 2579 2442 2387 2318
1455 1639 1652 1872 2295 2494 2452 2412 2500 2666 2793 2831 2819 2825 2684 2714 2727 2921 2964 2950 2880 2843 2807 2718 2607 2624 2730 2747 2650 2534 2304 2320 2455 2643 2549 2380 2412 2165 2472 2444 2050 2651 2356 2576 2263 2234 2141 2070 2253 2294 2319 2550 2503 2400 2318 2446 2560 2571 2568 2656 2380 2338 2599 2413 2464 2291 2316 2487 2371 2341 2100 1842 1921 1952 2128 2213 2130 2076 2271 2530 2300 2236 2381 2340 2235
1375 1407 1449 1807 2374 2590 2632 2570 2568 2675 2798 2915 2849 2544 2660 2928 2959 2926 2878 2776 2730 2745 2480 2303 2398 2746 2691 2675 2467 2462 2393 2188 2174 2564 2589 2596 2502 2588 2570 2302 2379 2378 2616 2114 2430 2436 2266 2198 2120 2221 2249 2558 2697 2731 2458 2255 2234 2527 2671 2414 2406 2156 2450 2470 2305 2102 2130 1999 2256 2309 2001 1898 2028 2036 2113 1836 2037 2421 2346 2506 2072 1971 1969 2001 2123
860 989 1476 1818 2230 2630 2609 2473 2550 2778 3011 2883 2738 2728 2997 2968 2932 2842 2721 2607 2643 2457 2368 2425 2417 2482 2526 2531 2479 2424 2423 2249 1858 2000 2360 2541 2433 2665 2551 2510 2376 2531 2434 2350 2575 2170 1893 2043 2073 2090 2074 2364 2644 2584 2539 2444 2384 2346 2096 2358 2456 2371 2461 2312 2275 2186 1772 1856 2088 2485 1965 2026 1974 1908 1899 2133 2007 2346 2420 2370 2070 1926 1904 1876 2010
677 855 1091 1614 2246 2634 2655 2623 2694 2934 2675 2670 2846 2789 2931 2922 2794 2669 2642 2603 2545 2366 2507 2609 2483 2369 2296 2456 2364 2446 2374 2271 2233 2217 2273 2431 2445 2677 2566 2469 2580 2658 2484 2409 2307 2314 2351 2306 2116 2026 2248 2591 2673 2633 2506 2405 2426 2346 1988 2048 2381 2451 2111 2084 2285 2093 1741 1830 2080 2209 2167 2141 1671 1650 1786 1854 2124 2155 2259 2098 1849 1850 1917 1975 2040
606 497 802 1781 2080 2777 2639 2666 2567 2525 2510 2764 2820 2821 2911 2736 2653 2667 2512 2413 2456 2499 2557 2618 2400 2415 2252 2307 2400 2467 2381 2309 2323 2378 2358 2423 2334 2609 2488 2630 2702 2565 2235 2293 2154 2183 2357 2237 2195 2372 2431 2419 2419 2510 2480 2448 2310 2251 1931 2338 2121 1925 2050 1787 1767 2225 2259 2320 2122 1789 2203 1922 1797 1508 1825 2262 2447 2519 2670 1904 1908 2131 2156 2146 2128
584 533 928 1564 2107 2751 2671 2623 2591 2591 2626 2726 2806 2894 2710 2527 2449 2260 2231 2104 1889 2194 2211 2198 2204 2231 2259 2458 2276 2277 2324 2375 2306 2407 2336 2302 2391 2595 2494 2732 2842 2589 2279 2278 2462 2286 2284 2333 2190 2124 2511 2483 2428 2619 2302 2250 2190 2241 2248 1719 1478 1723 1753 1365 1737 1810 2039 2313 2085 1819 1823 2095 1867 1722 2028 2225 2224 2309 2158 1948 2079 2362 2074 1926 2038
556 884 1447 2004 2685 2680 2506 2529 2589 2670 2668 2650 2710 2656 2499 2393 2219 2207 2224 2200 2328 2220 2222 2157 2254 2241 2468 2228 2089 2018 2198 2204 2394 2277 2413 2527 2648 2664 2456 2650 2386 2593 2402 2424 2400 2475 2471 2426 2408 2234 2462 2600 2482 2582 2580 2384 2410 2250 2319 2408 2145 1927 1624 1715 1658 1370 1589 1777 2004 1970 1863 1790 1650 1830 2048 2232 1965 1887 1993 2130 2220 2169 2155 2044 1888
1016 1566 1950 2122 2271 2474 2405 2440 2601 2684 2488 2484 2450 2390 2284 2133 2285 2255 2272 2281 2248 2227 2234 2249 2053 1869 2043 1905 1712 2159 2239 2177 2180 2299 2568 2641 2754 2598 2464 2442 2205 2253 2303 2302 2227 2310 2526 2455 2471 2391 2401 2530 2641 2693 2349 2327 2548 2750 2523 2471 2439 2137 2098 1898 1411 1479 1590 2040 1835 1896 1828 1580 1510 1617 1974 2137 2267 2101 2029 2202 2226 2156 2150 2096 1995
1207 1482 1758 2076 2176 2741 2468 2457 2485 2422 2504 2508 2443 2325 2382 2466 2424 2385 2340 2351 2329 2316 2330 2049 1654 1754 1810 1986 2037 2263 2257 2265 2269 2448 2486 2625 2671 2596 2426 2371 2380 2432 2429 2353 2306 2325 2358 2366 2402 2366 2350 2332 2449 2800 2658 2314 2644 2757 2675 2398 2318 2188 2017 1713 1610 1516 1596 2091 2192 1869 1837 1596 1497 1596 2018 2165 2231 2017 1934 2021 2187 2173 2082 2021 1972
1065 1344 1804 2215 2380 2407 2659 2474 2499 2532 2542 2532 2567 2569 2575 2584 2590 2552 2570 2505 2548 2592 2318 1943 1777 1828 1861 2143 2208 2179 2356 2414 2487 2437 2440 2382 2711 2532 2338 2334 2287 2094 2251 2085 2451 2458 2281 2239 2254 2378 2338 2353 2826 2894 2772 2428 2255 2557 2462 2671 2376 2313 2037 1938 1752 2065 1943 2164 2096 1782 1597 1555 1640 1695 1995 2170 2314 1829 1732 1986 2004 2098 2087 2019 1996
1083 1571 1900 2149 2274 2480 2348 2544 2533 2720 2651 2706 2632 2482 2489 2567 2564 2551 2576 2575 2562 2696 2182 1875 1594 1708 2172 2287 2357 2343 2497 2361 2310 2441 2415 2338 2518 2425 2426 2307 2042 2167 2246 2413 2441 2340 2266 2277 2244 1966 2588 2681 2798 2868 2820 2429 2281 2547 2554 2368 2236 2182 2587 2479 1986 2090 2196 2005 2039 1835 1421 1598 1526 1658 1884 1958 2185 2216 2037 1978 1962 2019 2039 1988 1969
928 1367 1641 1930 2165 2134 2294 2411 2595 2664 2636 2471 2420 2360 2400 2369 2381 2350 2535 2705 2672 2648 2440 2325 2148 2424 2511 2539 2524 2498 2392 2315 2367 2383 2282 2298 2348 2376 2251 2293 2223 2297 2441 2684 2425 2244 2043 2026 2077 1994 2605 2500 2517 2500 2863 2840 2345 2300 2471 2479 2412 2071 2284 2162 2097 1963 2222 2389 2118 1874 1635 1536 1644 1684 1813 1946 2103 2296 2094 1996 1983 1956 1939 1951 1921
951 1160 1590 1772 1705 1796 2075 2222 2477 2368 2440 2412 2284 2198 2354 2270 2291 2145 2516 2559 2538 2337 2531 2680 2598 2493 2446 2398 2384 2388 2372 2294 2333 2272 2194 2266 2321 2362 2347 2235 2187 2304 2629 2711 2445 2252 2154 2055 1920 2088 2294 2550 2590 2702 2857 2886 2373 2118 2514 2701 2354 2262 2405 2356 2033 2196 2186 2218 2037 2108 1604 1684 1665 1564 1581 1843 1953 2127 2144 1939 1771 1770 1851 1808 1608
670 1304 1667 1514 1446 1448 1606 2178 2200 2229 2258 2151 2200 2109 2338 2295 2110 2154 2194 2281 2486 2436 2640 2473 2598 2467 2354 2238 2255 2250 2363 2365 2330 2266 2242 2131 2505 2357 2206 2249 2378 2579 2622 2579 2367 2324 2267 2274 2266 2321 2413 2588 2729 2714 2686 2684 2660 2718 2438 2480 2395 2188 2182 2404 2286 2111 2104 2100 1883 1638 1515 1748 1747 1581 1651 1913 1951 1979 2159 2083 2112 2023 1955 1881 1654
661 823 1040 1149 1305 1568 1972 1893 1864 1987 2095 2006 2122 2250 2300 2242 2208 2237 2377 2445 2604 2539 2257 2359 2258 2171 2259 2358 2377 2422 2375 2343 2390 2284 2397 2488 2359 2151 2172 2297 2405 2506 2586 2305 2256 2377 2609 2504 2560 2556 2596 2646 2713 2642 2528 2539 2514 2558 2584 2606 2178 1946 1716 2450 2070 1801 1588 1929 1896 1363 1521 1380 1398 1553 1471 1688 1793 1954 1947 1836 2041 2183 2103 2005 1774
590 736 874 1215 1212 1659 1832 1758 1851 1933 1635 2059 2006 2224 2123 2130 2300 2418 2498 2490 2536 2403 2399 2216 2114 2161 2169 2278 2290 2194 2442 2470 2046 2200 2297 2088 2269 2370 2414 2487 2664 2675 2554 2427 2327 2538 2724 2726 2652 2629 2770 2804 2669 2592 2702 2869 2667 2620 2442 2445 1823 1477 2294 2145 2250 1855 1433 1975 2063 1614 1627 1650 1622 1655 1732 1638 1746 1791 1686 1748 2000 1993 2023 2014 2038
611 515 876 1033 1168 1608 1799 1777 1840 1926 1856 2099 2115 2197 2274 2260 2339 2582 2518 2434 2469 2424 2422 2235 2338 2496 2409 2406 2640 2629 2664 2888 2330 1955 2423 2442 2432 2418 2474 2618 2646 2746 2715 2598 2615 2645 2746 2707 2693 2837 2882 2809 2681 2466 2756 2706 2840 2718 2450 1760 1171 1566 1830 2089 2411 1420 1627 2039 2072 1966 2002 1972 1931 1912 1866 1799 1720 1700 1467 1638 1708 1824 1903 1906 1999
577 586 780 930 1202 1558 1745 1886 2053 2166 1941 1938 1826 2164 2114 2413 2534 2476 2525 2532 2601 2657 2457 2456 2364 2480 2724 2594 2661 2609 2333 2609 2856 2341 2570 2194 2368 2424 2514 2628 2614 2805 2767 2710 2644 2736 2772 2775 2860 2811 2852 2954 3081 3142 2704 2610 2759 2960 2576 1879 1088 1363 2114 1857 3070 1550 1745 1950 1972 2312 2239 2248 2229 2236 2172 2178 2139 1975 1718 1640 1778 1724 1833 1905 1844
594 615 764 1131 1468 1885 2007 2124 1986 2061 1884 1634 1877 2111 2048 2349 2350 2273 2333 2373 2475 2350 2495 2314 2569 2497 2325 2514 2479 2745 2676 3132 1921 2378 2197 2251 2298 2356 2537 2606 2692 2663 2664 2689 2756 2675 2706 2855 2855 2887 2932 2679 2538 2707 2650 2213 2677 2479 2489 1662 1393 1528 1615 1973 1800 1508 1794 1932 1892 2066 1922 1927 1996 2023 2133 2139 2185 2190 2120 1946 1848 1892 1828 1828 1804
628 612 841 1171 1505 1721 1712 1748 2009 1954 1914 1785 1792 1731 1863 1968 2046 2143 2209 2313 2256 2174 2179 2178 2366 2462 2140 3050 2837 2662 2102 2590 2521 2336 2678 2501 2376 2321 2367 2371 2452 2542 2823 2636 2827 2634 2845 2864 3023 2850 2843 2593 2330 2358 2272 2022 2040 1926 1870 1860 2056 1803 1792 1955 1756 1660 2040 2121 2070 2052 1955 1929 1905 1976 2033 1995 2018 2069 2072 1972 1960 1894 1931 1946 1922
370 586 630 855 1661 1757 1890 1917 1765 1720 1782 1803 1739 1915 2007 1682 1788 1919 2028 2240 2454 2250 2111 2160 2153 2022 2250 2119 2131 2200 2318 2487 2236 2157 3045 2850 2278 2048 2112 2422 2648 2458 2331 2494 2366 2395 2498 2496 2488 2684 2695 2230 1864 2000 1781 2215 1834 1488 1127 890 2156 2220 2180 1915 1805 1738 1962 2081 2207 2212 1988 1897 1877 1834 1819 1789 1835 1935 1948 1881 1837 1836 1841 1998 1893
534 568 633 903 1051 1994 2272 1652 1739 2150 1955 1933 1913 1867 1938 1683 1627 1695 1827 2036 1798 2418 2478 2245 2137 1934 1751 1824 1884 2074 1961 2074 2234 2430 2765 2484 2533 2544 2163 2987 2568 2620 2595 2736 2347 2573 2661 2635 2399 2450 1805 1656 1861 2167 2425 1604 1628 708 895 1105 1185 1481 2382 1822 1910 1843 1934 2142 2166 2150 2029 1888 1856 1871 1852 1870 1876 1876 1835 1792 1845 1864 1873 1911 1912
639 561 642 800 883 1541 1920 1582 1759 2057 2144 1871 1841 1594 1534 1149 1037 2057 1753 1672 1508 1661 1606 1435 1467 1844 1390 2219 2180 2332 1960 2231 2329 2690 2667 2416 2239 2262 2275 2378 2477 3079 2762 2516 2223 2774 2762 2692 2214 1854 2301 1175 927 978 1041 1501 1448 950 1524 1312 871 1302 1939 1933 1864 1881 2034 2222 2498 2411 2235 1985 1861 1873 1852 1795 1757 1784 1802 1812 1843 1910 1961 1926 1881
522 657 558 851 849 1029 1398 1771 1923 1984 1799 1656 1268 1347 1270 1152 1300 1295 1277 1525 1060 905 1336 1225 896 1383 1719 2192 1912 2507 2524 2168 2502 2200 2386 2157 2373 2257 2092 1855 1872 1987 2420 2067 1949 2123 2357 2252 2564 2262 2256 1992 1070 905 1330 1018 1070 1235 1082 1224 774 1172 1680 2033 2040 1775 1764 2096 2266 2513 2477 2325 2175 1975 1884 1864 1818 1848 1815 1788 1845 1899 1898 1768 1741
422 505 512 755 705 922 756 1154 1468 1641 1765 958 1256 1288 1190 1398 1505 1344 1404 1419 874 794 1358 905 1127 1370 2372 2786 1934 1614 1932 3466 2057 2030 2085 2114 2396 2336 1838 1786 1818 1358 1500 1823 2512 2687 2538 2684 2842 2429 1580 1544 1370 1574 1604 652 321 679 1048 1228 757 597 1246 2016 2086 1921 1802 1886 2050 2437 2469 2483 2367 2219 1992 1962 1949 1928 1846 1920 1850 1872 1877 1809 1760
350 442 424 588 923 636 732 1031 1323 2050 1165 821 1492 1261 1236 1324 1324 1159 1112 1032 1000 1283 906 760 483 1530 2752 3480 2877 3081 1969 2458 2506 2567 2419 2206 2566 2680 2152 2062 1906 2924 2450 2586 2851 3035 2577 2730 3145 3018 3193 2299 1810 2046 1558 896 634 647 878 810 917 1193 1003 1016 2170 2194 1859 1873 1921 2176 2335 2379 2448 2422 2330 2172 2057 1928 2001 2040 2003 1952 1955 1842 1779
176 318 338 544 506 551 606 769 1101 1766 1547 832 1677 1108 1304 1290 1530 1240 1011 1074 1517 812 757 922 2298 2208 2457 2570 3275 2730 2454 2158 2396 2811 2201 2186 2294 2509 2765 2662 3020 2924 2850 2807 2973 3144 3357 3079 3099 3706 3327 3369 2115 1876 1498 1050 626 278 804 812 1046 818 1232 1312 1184 1800 1783 1960 2017 2060 2322 2264 2466 2417 2444 2438 2376 2186 2131 2144 2308 2164 2050 2023 2002
133 171 262 485 435 426 599 646 979 1684 1438 758 851 983 1002 834 1027 973 1022 1291 1137 838 517 2395 2716 2572 3549 4110 4148 2929 2812 3261 3786 3130 2429 2362 2104 2746 2534 2803 2993 2988 2575 2782 2981 3033 2967 3000 2787 2972 2726 2554 2128 931 1032 588 305 461 447 480 796 1117 1323 1052 809 1090 2265 2136 2136 2153 2146 2373 2386 2494 2546 2513 2427 2462 2295 2294 2437 2212 2098 2067 2024
73 199 92 358 247 504 608 717 1018 1015 1457 798 1429 1135 912 778 751 644 1335 1473 1054 868 1634 2408 3176 2857 3722 3951 3704 3419 3614 3142 3592 3910 2473 2224 2460 2757 2753 2817 2892 2345 3325 3254 3043 2762 2804 2763 2626 2923 2390 2419 1983 1766 1557 1058 786 948 522 596 937 1273 1128 797 648 550 994 2325 2331 2343 2271 2336 2491 2526 2643 2572 2494 2412 2494 2446 2528 2427 2102 2086 2029
90 91 25 334 299 421 462 532 1300 943 1072 1346 1181 1333 1185 594 696 670 1369 1499 1034 722 1082 2394 2533 2519 2830 3203 3315 3158 3600 3603 3698 3629 3333 2518 2172 2337 2768 2607 2823 3275 3253 3090 3024 2877 2629 2704 2898 2552 2692 2673 1837 1946 1721 1266 254 329 879 1232 628 1090 792 757 1016 672 908 948 2224 2255 2400 2628 2644 2540 2470 2457 2496 2410 2428 2600 2543 2571 2345 2227 2301
170 114 4 206 237 550 745 602 971 904 1184 1353 1414 1422 1128 1152 734 1012 1507 1761 907 491 798 1448 1644 2157 2289 3018 3437 3531 3748 3666 3520 3615 3645 2596 2068 2012 2736 3295 3031 2951 3032 2947 2893 2618 2968 2683 2728 2388 3237 2475 2214 1730 1980 1516 757 526 560 1033 379 994 1572 984 886 729 697 849 984 1762 2438 2570 2529 2702 2770 2465 2351 2443 2586 2616 2570 2431 2391 2509 2495
333 97 25 219 264 583 839 626 913 734 1185 781 1544 1577 1474 1319 1229 632 813 1447 635 423 756 741 985 1378 2006 2728 3488 3654 3757 3640 3238 3290 3610 2637 2350 2306 2820 2170 3257 3238 3291 3000 2666 2505 2970 2305 3398 3006 3184 4163 2736 1452 1582 1425 971 637 391 315 305 1143 1337 1812 555 425 526 822 935 821 1994 2473 2642 2545 2951 2846 2730 2727 2598 2624 2738 2583 2472 2551 2497
487 217 8 87 235 411 450 588 701 631 1449 1355 1727 1360 1400 1385 1192 872 1265 978 418 344 518 793 883 1401 2281 3187 3583 3625 3899 3428 3516 3924 4085 2663 2310 2024 2626 3539 3360 3122 3279 3077 3647 2276 2570 3317 3608 3928 3158 3329 3362 2016 1608 1089 452 279 414 183 958 886 1054 1342 1082 1401 939 649 837 763 725 996 1772 2335 2460 2362 2558 2903 2232 2713 2580 2824 2567 2673 2501
447 436 10 330 274 388 518 1024 859 580 932 1420 2045 1515 1783 1474 1009 1187 848 1000 1186 649 845 798 692 1531 2330 3275 3742 3608 3940 3958 3812 3523 3740 3150 2950 3012 2914 3123 2976 3149 3090 3208 3184 3072 3143 2984 3111 3443 3360 3752 3378 2595 1998 2335 676 660 264 105 382 1690 1213 710 1089 1264 1363 275 298 288 287 626 182 1157 2451 2504 2573 2900 2661 2271 2613 2577 2661 2764 2677
614 845 169 377 666 253 722 1089 1082 566 1507 1698 1949 1458 1550 1399 1004 1098 1020 1077 1290 993 1096 975 394 1761 2801 3166 3568 3871 4104 4286 3966 4129 3991 3878 3284 3267 3244 2641 3368 3217 3018 2530 2527 3197 3488 3212 3472 3282 3227 3084 3173 3008 2246 1820 1486 1473 1146 637 968 1399 1222 1047 780 602 625 23 442 992 342 404 656 320 566 2080 2426 2519 2808 2847 2852 2772 2835 2823 2822
794 880 516 342 848 29 972 1068 1122 1058 1670 1753 1743 1449 1801 1738 1398 904 990 886 1341 930 848 714 490 1886 2950 3188 3483 3298 3849 4473 4420 4185 4158 3904 3478 3334 3016 3012 3456 3267 2986 3098 2904 3033 3422 3268 3341 3513 3330 2941 3373 2685 1766 1352 2229 1542 1088 1311 830 984 1171 1143 1210 648 514 312 352 999 591 263 309 397 861 519 1044 1710 2424 2864 2901 2639 3115 2610 2799
763 779 552 468 505 0 746 910 1125 1352 1798 1837 2015 1795 2082 1731 1363 741 914 767 1115 1137 1234 782 548 1718 3043 3425 3359 3539 3557 4179 4230 4107 4099 3988 3240 2781 2806 2870 3688 3676 3188 3226 3179 3361 2948 2869 2954 3826 3122 3200 3481 2026 2255 1798 2180 1242 1052 1193 1064 1544 1196 837 566 321 387 428 375 438 441 294 346 433 444 647 473 850 1496 1807 2725 2887 3088 3032 2582
566 570 668 613 882 20 1044 979 1147 1350 1870 1964 2273 2003 1974 1668 1136 648 713 575 652 668 739 705 666 1074 1937 2940 2918 3531 3611 3618 3717 3708 3822 3822 3780 3667 3952 3523 3445 3792 3860 3556 3254 2944 3092 2450 2711 2746 2992 2653 2787 1619 2331 1809 2094 1090 2274 1744 916 840 1248 1610 989 408 242 272 268 246 278 265 375 486 1036 911 768 906 897 925 1291 1764 2404 2756 2981
938 618 615 824 739 475 1515 1198 1251 1297 1749 2277 2144 1768 1779 1574 1623 1214 666 497 726 993 1138 1064 955 1106 1645 2143 2983 3586 3309 3036 2841 3002 3023 3528 4088 4049 4116 4218 4484 4237 3788 3170 3214 3154 2886 2626 2619 3086 2996 2326 1905 2147 2376 2204 2321 1572 847 1030 983 862 1306 952 1434 601 199 166 174 140 12 299 643 958 1245 1278 892 1164 709 1176 1595 1330 1385 1364 2356
762 676 769 707 595 843 1645 1468 1417 1610 1780 2275 2048 1636 1904 1454 1789 1471 1003 1495 950 822 671 730 696 1352 1438 2033 2448 3138 3265 2791 2771 2966 2720 3448 3854 4039 4094 4184 4094 4082 3983 3941 3718 3131 2796 2378 2862 3107 3040 2764 2009 2034 2184 1554 1590 2068 2605 1606 1252 901 1001 732 310 1248 234 99 97 106 11 92 551 1442 1366 1346 1104 1221 1230 1650 2043 2362 2005 1438 1543
821 771 801 808 786 943 1529 1955 1366 2058 1516 2202 1900 1784 1737 1292 1304 1406 563 1301 812 829 587 758 379 751 716 1228 2120 2210 2366 2532 2917 2832 2522 3044 3402 3672 3635 3644 4648 4889 4917 3316 3356 3030 2980 2780 2977 2986 3023 2884 2929 2517 1897 2590 1876 1882 1700 1705 1195 1683 1143 944 797 275 694 483 277 176 115 171 561 1235 1351 1121 1035 1210 1220 1812 2531 2265 2095 2451 1920
878 913 931 1116 1149 1333 1587 2070 1562 2066 1695 2144 1729 1689 1582 1232 1040 799 562 1137 1274 749 894 559 756 826 862 1372 2218 2082 2887 2334 2068 2654 2439 3219 3369 3619 3738 3753 3738 3744 3800 3295 3083 2402 2331 2623 2610 2993 3013 4039 3155 3014 2380 1990 2425 1703 1104 641 1023 962 348 1280 818 1305 938 2364 725 416 171 257 522 791 968 932 785 1268 1019 1785 1615 1947 2432 2358 2126
948 1042 1047 1066 1433 1812 1741 2118 1859 2171 1814 2222 1694 1509 1386 1351 1068 596 574 917 818 1448 1203 1676 1631 1257 1290 910 1510 1918 2635 2722 2456 2937 2935 3041 3389 3622 3802 3681 3290 2592 3433 3377 3067 2366 2032 2338 3096 3664 3934 3682 3747 3504 2223 1786 2831 2701 1516 959 854 745 454 688 734 891 1006 902 1455 996 232 204 115 354 737 683 699 926 1389 1406 1560 2208 2085 1983 2449
930 1055 1159 1583 1739 2062 2125 2234 2257 2206 2241 2314 1736 1366 1553 1619 1136 948 1064 947 1491 1745 1308 1037 1207 1525 1013 1481 1840 1911 2986 2934 2963 2763 2953 3042 3377 3642 3739 3720 3358 3078 3549 3055 2291 2198 3023 3676 4051 3862 4266 4645 3589 4272 3349 3688 3452 2224 1526 2275 2136 1152 282 363 513 694 1814 1539 1028 842 758 201 198 750 298 85 305 1260 1546 1372 1467 1273 2212 2302 2137
949 1188 1219 1279 1404 2184 2413 2280 2416 2165 2344 2380 1980 1642 1685 1868 1298 1019 1344 1018 1448 1572 1122 1161 1649 997 1786 1352 2169 2606 2506 2837 2799 2894 3294 3122 3215 3466 3388 3316 3356 2105 2498 2249 2268 2204 3244 3935 3784 3554 3639 3704 4706 4079 3159 4180 3192 3148 2667 2888 3608 3036 1973 1384 493 261 547 1318 1287 831 327 651 1154 1076 576 414 309 303 1002 1332 2055 978 1678 2281 2291
1144 1098 1214 1294 1446 1843 2656 2482 2537 2059 2372 2578 2256 1811 1760 1932 1332 1120 1239 1134 1126 1328 1082 1481 1160 1511 1334 1428 1658 2708 2352 2595 2234 2794 3068 2577 2929 3098 2614 3021 2911 2946 3008 2946 2012 1808 2120 2830 3294 3909 4087 3789 4230 4370 3556 3709 3873 4050 2747 4182 2874 2271 1853 1851 1436 2132 1699 1079 696 680 491 388 390 658 1304 459 665 457 412 1258 1369 1120 1377 1917 2231
Wind_Speed
10 11 11 12 9 9 9 8 7 7 7 7 7 8 8 8 8 8 7 7 8 8 8 8 7 5 5 5 4 4 4 5 6 6 5 5 5 5 4 5 5 5 5 5 5 5 5 5 5 5 6 8 14 10 12 12 11 14 18 19 17 15 15 14 14 14 15 17 18 18 17 15 15 13 12 13 12 11 12 11 9 6 4 5 6
12 12 12 11 10 10 10 9 9 7 5 6 7 7 8 8 8 8 7 7 8 8 7 6 5 3 3 3 3 3 3 6 7 7 6 5 5 5 4 4 4 4 5 5 5 5 5 5 5 5 7 9 13 12 10 9 9 13 16 14 12 12 13 13 14 16 16 16 18 18 18 18 16 14 14 14 13 12 10 11 11 4 4 7 6
12 12 12 13 12 11 11 11 9 8 7 8 8 8 8 8 8 7 7 6 7 7 6 5 4 3 3 2 2 6 8 9 9 8 6 5 5 5 4 3 3 3 3 4 5 4 5 6 6 7 7 10 13 10 9 8 11 15 12 12 10 10 11 12 15 16 15 15 17 18 18 18 16 16 15 14 13 10 11 11 9 6 3 7 7
15 13 11 13 14 11 11 10 10 11 10 10 9 8 8 9 8 7 7 7 6 6 5 4 3 3 2 2 5 7 7 5 5 4 5 5 5 4 3 3 2 2 2 3 4 5 7 8 8 8 9 8 9 12 8 5 11 14 12 10 9 10 10 11 12 12 11 11 12 13 8 10 13 15 14 13 13 11 11 9 9 7 6 6 8
15 12 11 11 12 11 11 12 11 11 9 9 8 7 8 8 7 7 7 6 6 5 5 3 3 3 2 5 5 5 5 5 4 5 5 5 5 3 3 3 2 2 3 4 5 6 8 9 9 7 9 8 7 10 10 7 10 12 10 10 8 9 9 9 9 8 10 9 11 11 6 9 9 14 12 11 11 11 9 8 8 7 7 8 8
13 11 11 11 10 11 11 11 10 10 8 6 6 6 7 7 7 6 7 7 6 5 5 4 3 2 3 4 4 4 5 4 5 6 6 5 5 4 4 3 2 3 4 5 7 7 10 10 11 8 6 5 6 7 10 10 11 12 11 9 8 8 8 8 8 7 6 7 11 5 6 7 9 8 12 10 11 11 10 8 7 7 8 9 9
14 10 9 10 9 10 11 11 10 9 7 6 6 8 8 8 7 7 6 6 6 6 6 4 4 3 3 3 3 4 4 3 3 3 3 5 4 4 3 3 3 5 5 7 8 8 10 13 13 8 5 4 5 7 8 8 10 10 10 10 10 7 7 8 7 7 7 5 7 6 6 7 7 5 9 10 9 9 7 8 5 7 8 7 8
11 9 9 8 7 11 12 12 10 9 8 7 8 8 8 8 7 6 7 7 6 6 6 4 3 3 2 3 3 3 3 1 1 2 3 3 4 3 3 4 4 5 7 6 8 8 10 13 14 13 8 6 5 8 8 8 9 10 11 10 8 8 9 9 8 7 6 1 4 5 5 6 5 5 8 8 8 8 8 4 6 7 7 8 8
12 11 9 8 9 14 14 13 12 11 10 9 8 8 7 7 7 7 7 7 6 6 5 3 2 1 1 2 2 2 3 3 2 1 1 1 3 3 4 4 4 5 6 6 7 8 9 11 12 11 9 7 7 7 8 8 8 8 11 12 11 9 8 8 7 8 4 5 2 3 3 3 3 3 5 5 7 9 7 5 6 8 8 7 7
13 11 10 8 10 14 14 13 11 10 9 8 7 7 7 7 7 7 7 6 6 6 4 3 2 2 2 1 1 2 2 3 3 2 2 1 3 3 5 5 4 4 6 6 6 7 9 9 9 10 9 6 7 8 8 7 7 8 8 9 4 5 6 4 2 3 6 4 3 2 1 2 3 4 5 8 9 11 7 1 3 4 5 9 8
15 11 10 10 13 14 14 12 10 7 7 7 7 7 7 7 6 6 6 6 7 6 4 4 4 4 2 2 1 2 3 4 5 4 2 2 2 3 4 5 5 4 5 6 5 6 7 7 7 8 7 5 7 8 8 7 6 8 13 11 6 8 6 6 8 7 6 5 4 4 1 3 5 6 5 8 6 3 6 6 6 6 8 9 8
14 11 10 9 15 14 14 13 10 8 7 7 7 8 7 6 6 6 6 6 6 6 5 6 6 3 2 1 2 3 3 4 3 3 3 2 1 1 3 4 5 4 4 4 4 4 5 6 6 5 5 4 6 8 8 6 7 8 9 10 9 6 9 11 10 8 8 7 6 6 5 5 6 5 5 6 6 4 6 6 6 7 8 9 9
13 10 9 10 11 14 14 13 10 8 7 7 8 9 8 7 6 5 6 6 6 5 5 3 1 0 2 3 3 4 4 3 3 3 3 2 1 1 2 4 4 4 4 4 4 4 4 5 5 4 3 3 4 6 7 6 8 9 10 8 4 3 6 7 9 8 10 10 8 7 5 7 7 2 2 5 4 3 4 5 7 7 8 9 9
12 10 9 9 9 14 14 12 9 8 7 7 7 7 6 6 5 4 5 5 5 5 4 3 4 4 5 5 5 5 5 4 4 3 3 3 2 2 2 3 3 3 4 3 3 2 3 4 4 3 1 1 2 4 5 4 6 7 8 8 5 4 3 2 4 8 10 9 6 5 6 6 5 2 5 4 4 3 4 5 7 7 8 9 9
12 12 10 9 9 10 15 12 9 8 7 7 6 6 6 5 5 5 5 6 6 5 5 6 7 7 7 6 6 5 5 4 4 3 4 3 3 3 3 3 4 4 3 3 3 2 2 2 2 1 3 2 1 2 2 3 4 7 7 8 6 2 4 9 10 10 7 7 6 2 4 4 1 3 4 3 4 2 5 6 7 8 8 9 9
13 12 11 9 10 10 9 10 9 7 7 7 6 6 6 5 5 5 6 6 7 8 8 8 10 9 7 6 6 5 5 5 4 4 4 4 4 4 4 4 4 3 2 2 2 3 2 1 0 1 4 5 3 1 2 3 5 7 8 8 7 6 7 8 9 7 6 4 3 3 2 1 2 2 3 4 4 3 5 7 7 8 9 9 9
12 11 11 10 11 10 9 7 6 9 8 7 8 7 7 7 6 6 6 6 7 8 9 10 10 8 7 6 6 6 5 3 4 5 5 5 5 5 5 4 5 4 2 1 1 2 2 3 3 2 4 4 3 1 1 3 7 9 9 8 9 10 8 7 10 7 6 5 4 4 3 3 2 3 3 4 4 5 6 8 8 8 8 9 9
12 11 10 11 10 10 8 6 6 5 5 5 7 7 7 6 7 6 6 6 8 9 10 10 10 9 8 8 7 6 5 5 5 6 6 5 5 6 5 6 6 5 3 2 3 3 4 5 6 6 5 4 5 3 3 4 5 9 11 11 11 10 9 10 9 8 7 5 4 3 4 4 4 4 5 3 3 5 5 8 8 8 8 8 9
10 10 10 10 10 10 7 5 5 4 5 4 5 5 7 6 6 6 5 6 7 9 10 11 11 10 10 8 7 6 6 6 6 7 7 6 7 8 7 7 7 7 5 5 5 6 7 8 8 8 9 8 6 6 6 8 8 7 9 8 8 9 9 9 10 9 8 8 6 5 6 7 6 6 6 5 3 2 4 7 7 8 8 8 9
8 8 7 6 7 8 5 3 4 4 4 4 4 4 5 6 6 5 5 6 7 9 10 10 9 9 9 8 7 8 8 8 7 8 7 7 9 8 8 8 9 8 8 8 9 9 10 11 10 10 10 9 9 9 10 10 12 10 8 5 4 6 8 12 10 9 9 8 8 8 9 9 8 6 6 6 4 3 3 7 8 8 8 8 8
4 6 4 4 7 7 4 2 4 5 3 3 4 3 4 5 5 5 6 7 8 9 9 9 8 7 8 8 9 11 12 12 11 10 8 9 7 8 9 9 10 10 10 11 11 11 12 13 13 12 12 12 12 12 12 14 14 11 6 4 6 8 11 11 11 10 9 9 10 12 15 13 11 10 9 8 9 8 8 7 8 7 8 8 8
5 4 4 5 4 5 2 2 4 3 2 4 4 4 5 5 6 6 7 8 9 8 10 10 8 9 7 11 13 12 13 13 13 9 10 9 9 9 10 11 12 12 12 13 14 14 13 13 13 12 12 12 12 11 14 16 17 11 6 5 9 11 11 12 13 9 9 10 12 15 17 16 15 15 14 14 13 11 8 5 4 5 7 8 9
5 4 4 6 3 4 2 3 5 4 3 3 3 4 5 6 7 8 9 9 11 11 11 10 10 10 11 11 12 12 12 13 14 12 11 9 9 10 11 12 13 13 14 14 14 13 13 13 14 13 12 13 13 12 13 16 16 13 4 9 10 13 13 13 14 8 9 11 14 17 18 19 18 17 17 16 14 10 10 9 11 11 11 10 12
6 5 5 4 5 3 3 2 3 3 4 4 3 4 6 7 9 10 10 10 11 14 11 10 11 11 9 11 11 12 13 14 11 8 8 11 11 11 12 12 12 13 14 14 14 14 15 16 15 14 14 12 12 13 14 14 14 12 10 11 12 13 12 14 13 10 11 13 15 15 14 13 13 12 11 11 10 11 12 14 14 13 13 15 16
4 6 6 5 9 6 2 3 2 4 4 4 4 5 6 9 9 10 10 10 10 12 11 10 9 8 8 11 10 13 11 12 13 13 14 14 15 15 14 15 15 14 16 15 16 15 17 16 15 15 14 13 14 13 13 15 14 10 11 10 12 14 13 13 11 10 11 14 15 15 14 14 14 13 13 12 13 13 14 14 14 15 16 17 18
4 5 7 7 10 9 5 3 3 4 4 5 5 7 8 9 9 9 8 9 9 11 11 8 7 8 8 9 10 11 11 12 13 13 15 16 16 15 15 15 15 14 16 16 16 15 16 15 15 16 15 14 13 14 17 16 15 9 12 10 13 15 14 12 11 11 13 14 16 14 13 13 14 14 14 14 14 15 15 15 15 16 17 17 18
4 5 7 6 9 9 5 4 5 5 5 6 8 9 10 9 9 8 7 5 10 11 9 6 6 9 10 10 10 9 10 12 12 13 14 15 16 15 15 17 16 14 16 16 16 16 15 14 15 15 14 16 17 19 19 18 12 16 15 17 15 16 17 13 12 11 13 15 16 15 14 15 15 15 15 15 15 16 16 17 17 17 17 18 18
4 7 7 7 8 11 6 5 6 4 7 7 8 10 11 8 7 7 7 7 8 8 6 6 5 7 11 11 10 9 9 11 13 13 13 14 15 14 15 14 15 14 14 16 16 14 14 15 15 16 19 14 12 12 10 11 10 14 20 20 19 18 16 15 13 12 13 15 16 16 16 15 16 16 16 16 16 16 17 17 17 17 17 16 16
7 7 7 7 9 11 8 6 4 4 7 8 9 11 10 9 7 7 7 7 7 5 5 5 6 8 11 8 8 10 11 10 11 12 13 13 13 13 13 14 14 14 15 14 15 13 14 17 17 14 12 13 12 10 12 11 12 10 11 13 16 18 18 15 13 13 13 14 15 16 17 16 16 16 17 16 16 16 16 16 16 16 16 16 15
8 7 8 7 8 11 9 6 4 3 4 7 13 13 12 10 9 8 7 8 7 5 4 5 6 7 8 4 6 9 11 13 10 11 12 13 13 12 11 12 15 15 15 14 14 13 15 13 13 13 10 11 11 12 12 11 10 10 12 12 15 12 15 15 14 14 14 14 13 15 18 17 17 17 17 17 16 16 16 16 16 15 15 15 15
9 8 7 6 8 9 8 7 5 5 6 8 13 13 12 11 10 8 8 9 6 5 8 5 4 7 4 3 5 7 9 12 10 10 11 11 13 11 9 10 12 13 9 13 12 9 9 9 10 11 13 9 12 14 13 11 12 12 13 11 12 13 15 15 15 15 15 13 13 13 15 17 17 17 17 17 17 16 16 15 15 15 15 15 15
9 9 7 5 9 9 8 7 6 6 9 9 13 12 12 11 11 10 9 9 6 8 8 5 5 5 2 3 5 5 8 10 9 9 7 9 9 9 7 8 8 9 9 10 8 9 8 9 10 10 11 15 13 14 15 14 14 12 12 11 13 13 16 18 14 16 15 14 14 14 13 14 17 17 17 17 16 16 15 15 15 15 15 14 15
6 10 9 8 10 8 8 8 7 7 10 10 11 12 11 8 11 9 10 7 8 9 6 5 5 5 4 2 4 4 7 8 9 6 5 6 6 7 6 6 7 8 9 8 7 8 8 10 8 10 11 13 14 13 16 14 11 13 12 12 12 15 14 14 14 15 16 16 15 15 15 13 14 17 18 18 18 17 16 16 16 16 16 17 17
nan 8 nan 9 8 5 8 8 7 5 10 11 12 11 10 9 10 9 9 8 9 8 5 5 5 5 4 4 3 4 3 4 5 7 5 4 4 5 4 5 5 7 9 9 7 7 7 9 8 9 11 11 13 16 15 14 11 14 12 10 12 13 16 15 14 14 14 16 16 16 14 14 13 14 14 18 18 18 18 17 17 18 18 19 19
nan nan nan 10 9 7 8 9 7 6 10 12 10 10 9 7 9 9 7 9 8 8 2 3 5 3 4 4 2 3 2 2 4 4 5 3 2 2 3 3 6 7 8 8 8 7 8 9 9 8 10 11 13 11 16 12 10 13 14 11 12 12 12 12 12 13 13 13 15 15 14 14 14 14 14 13 17 19 18 19 19 19 19 19 19
8 8 nan 11 9 10 6 8 6 8 12 11 11 9 9 9 8 7 6 9 7 6 3 2 4 3 3 2 0 1 2 2 2 4 4 3 2 3 2 4 6 7 6 6 9 8 7 8 9 7 6 9 14 12 12 13 13 14 13 14 11 13 13 11 13 11 10 12 11 12 13 13 14 14 14 14 14 17 20 20 20 19 19 19 19
8 nan nan 10 8 11 5 8 5 8 11 7 10 9 10 7 8 5 2 8 4 6 4 3 3 3 1 1 1 2 2 1 1 2 3 2 2 1 2 4 6 5 5 7 8 9 9 7 7 8 6 8 11 8 12 14 14 15 16 12 9 10 10 13 10 9 10 10 13 11 12 13 13 14 12 14 14 13 18 20 19 19 19 19 19
7 10 nan nan 8 10 5 8 8 8 11 10 10 9 10 8 8 8 6 6 3 4 4 3 4 4 3 3 2 3 3 1 0 1 3 2 2 1 2 3 4 5 7 8 10 9 9 9 5 7 6 6 9 9 12 13 13 12 11 8 11 12 11 12 10 11 11 11 12 10 12 11 13 13 13 12 12 12 13 18 19 19 19 18 18
6 9 nan 9 4 9 8 11 10 9 10 10 10 9 9 8 8 7 6 7 7 6 5 5 3 3 3 3 2 3 2 2 2 1 1 2 2 2 2 3 6 7 6 8 10 8 10 8 6 7 6 7 5 9 9 14 13 12 7 7 10 10 11 11 15 12 12 12 12 12 7 9 8 7 12 11 11 12 12 13 14 14 16 20 18
5 8 6 8 3 7 10 12 12 10 12 10 10 8 7 6 5 6 6 7 8 6 5 5 4 4 3 3 2 2 1 1 1 2 1 2 2 4 2 7 6 8 6 8 9 9 9 8 6 7 8 9 8 5 10 12 11 8 9 9 9 8 10 12 11 12 11 nan 10 12 9 9 7 10 12 12 13 11 12 13 15 15 14 17 21
6 8 6 7 4 nan 10 12 12 13 11 10 8 7 6 6 6 4 4 3 7 6 3 3 3 4 3 3 2 2 1 1 2 1 2 3 4 6 6 9 6 7 7 8 9 8 7 6 7 8 9 7 9 6 7 9 8 7 10 9 6 9 9 10 11 10 10 6 9 13 7 8 8 7 4 7 8 10 10 14 15 12 12 12 16
6 8 6 7 5 nan 9 12 13 13 11 9 9 8 8 6 5 4 4 4 5 6 6 4 2 5 4 4 3 3 2 3 3 4 4 5 4 7 7 7 9 6 6 8 7 8 7 7 7 9 8 9 8 3 8 5 7 5 6 8 6 8 7 10 11 8 7 11 10 10 13 10 10 9 8 8 9 9 11 11 9 8 12 12 13
9 8 5 7 6 nan 11 12 14 13 11 9 9 9 8 6 4 4 4 5 4 4 4 4 3 4 3 3 4 2 3 4 3 4 6 7 6 6 7 6 5 6 5 5 7 5 8 7 8 8 8 9 9 7 5 2 7 4 3 3 6 6 5 7 8 9 10 11 11 11 9 8 6 6 11 13 13 11 9 7 7 9 10 13 16
9 7 6 7 5 7 11 13 14 13 11 11 9 9 5 5 4 3 3 6 4 5 4 4 5 4 2 2 5 4 4 4 4 5 7 6 6 7 7 7 5 5 4 4 5 7 6 6 8 8 9 8 6 5 7 3 6 2 3 5 6 7 5 7 8 9 9 12 10 9 nan 7 8 8 11 13 10 8 9 9 10 9 13 13 12
8 7 6 7 6 7 11 13 14 14 12 12 9 9 5 4 4 3 4 7 7 6 6 5 5 5 3 3 3 5 6 6 4 5 7 6 7 7 5 8 6 4 4 3 4 6 5 6 7 7 7 7 5 3 5 6 4 5 3 3 5 4 5 8 10 8 8 nan nan 9 nan nan 9 10 11 9 8 10 12 11 11 13 12 10 12
7 7 7 7 7 9 11 14 15 16 12 12 9 8 6 5 5 5 3 7 7 6 5 5 4 5 2 2 2 4 5 7 5 5 6 5 7 7 4 7 5 5 3 1 1 4 5 7 5 5 4 6 3 3 4 7 5 3 3 3 5 4 5 7 5 7 7 3 7 7 8 9 11 11 13 11 12 12 11 11 13 13 13 14 15
8 8 7 8 8 11 11 13 15 16 13 13 9 9 7 6 6 6 7 8 8 7 7 5 5 5 7 5 5 5 5 7 5 5 6 5 5 6 5 5 4 6 2 1 2 4 3 5 4 3 2 3 4 1 5 5 5 2 4 6 6 4 1 2 4 5 4 5 5 7 9 10 11 14 13 14 14 13 14 12 15 15 14 15 14
11 10 8 9 9 13 12 14 16 16 15 13 9 9 8 8 7 7 8 7 6 7 5 6 6 6 7 4 6 6 6 8 7 6 6 5 5 5 5 6 4 3 2 2 3 0 3 5 3 1 1 2 3 1 1 5 3 4 2 2 2 1 1 3 6 4 7 7 7 7 8 8 11 13 16 16 16 14 13 11 12 13 14 14 14
12 11 9 11 12 14 14 14 15 16 15 12 11 10 10 9 8 9 9 7 7 7 6 7 7 6 4 7 6 6 6 7 9 6 6 5 4 4 5 5 5 5 1 2 3 4 4 1 1 1 3 4 2 3 6 6 3 3 3 4 0 4 7 6 7 6 7 5 6 8 9 7 9 5 5 nan 9 12 14 14 13 13 14 15 14
12 13 12 12 12 14 14 13 14 15 16 13 11 11 10 9 8 9 9 6 6 7 6 7 8 11 9 7 9 7 6 6 7 8 5 6 4 4 5 4 4 4 2 3 3 1 5 3 2 3 4 4 4 5 6 4 5 4 3 5 4 3 3 5 8 10 8 8 9 9 11 10 10 9 9 11 5 8 10 14 13 13 14 15 15
11 13 12 12 12 11 13 13 14 15 16 13 12 11 10 10 9 8 8 7 5 6 6 7 8 9 9 9 9 8 6 5 6 6 6 4 5 4 4 4 4 3 2 4 2 1 4 5 4 3 4 6 6 7 7 7 8 7 7 6 9 8 8 7 6 4 6 8 8 9 9 7 7 9 11 6 9 11 10 13 14 14 12 13 15
Wind_Direction
357 348 353 355 354 347 342 334 325 326 326 333 328 315 309 299 294 290 286 284 278 264 257 251 250 250 257 259 266 270 254 241 235 228 226 211 202 192 185 187 186 177 169 164 171 170 175 191 198 214 240 247 256 246 245 241 247 244 247 253 256 261 263 263 265 271 262 257 258 255 249 242 237 236 239 243 245 247 249 254 247 243 239 263 296
0 347 351 358 1 344 338 336 329 321 334 338 327 321 316 306 299 294 289 282 272 268 266 266 272 285 294 303 299 291 250 228 218 217 206 196 192 190 188 191 190 180 174 171 176 186 197 208 224 248 264 275 268 265 267 266 266 256 254 260 263 260 263 266 263 260 262 262 261 258 250 244 236 231 235 248 252 246 253 259 259 203 166 265 279
344 348 352 353 349 345 340 335 329 335 346 341 333 332 325 313 302 297 291 278 273 279 282 289 301 318 330 341 286 229 224 217 204 182 195 190 188 187 197 206 206 196 185 181 187 204 217 231 250 265 265 273 289 291 284 297 284 274 274 277 279 276 269 266 258 254 257 263 265 260 253 244 238 233 230 245 256 259 266 269 261 236 174 260 279
338 344 349 346 342 346 341 336 337 341 347 344 333 330 323 311 309 301 292 283 284 284 286 293 309 339 344 261 236 235 236 222 201 185 206 198 194 189 202 203 206 214 210 212 222 238 241 236 244 247 268 265 270 288 293 287 283 295 309 312 305 287 281 269 251 246 240 235 252 257 245 233 230 238 236 242 254 256 259 261 261 268 275 275 274
329 339 346 352 346 344 343 339 344 351 350 339 329 316 311 307 306 300 289 283 282 282 286 303 333 351 288 248 248 262 260 242 217 194 198 203 199 191 205 206 217 261 262 252 246 250 254 260 258 246 245 255 275 292 311 326 315 316 325 329 325 307 295 275 263 252 248 220 252 257 247 239 228 239 241 240 248 251 249 254 263 271 269 267 270
331 342 348 349 347 343 343 343 351 355 353 340 323 319 318 310 299 292 285 286 286 290 292 308 327 307 279 268 275 275 264 249 200 182 194 203 196 199 212 216 255 276 270 269 261 259 275 272 253 239 249 272 291 303 318 324 322 327 335 332 315 319 305 285 278 261 242 253 248 231 239 227 224 225 249 247 249 240 231 249 259 256 258 259 266
329 350 350 347 351 344 348 351 354 352 346 336 326 324 321 312 303 297 297 294 296 296 298 302 309 309 294 292 290 272 265 262 243 197 199 196 201 202 227 265 272 265 269 273 278 285 284 286 291 276 261 295 312 306 308 314 312 318 326 314 323 333 310 302 291 271 252 200 153 186 212 219 217 206 242 252 238 214 211 153 229 245 253 261 267
333 347 348 347 345 344 347 350 350 349 351 335 331 324 320 313 305 308 312 315 309 297 287 290 302 316 314 311 298 287 302 294 276 275 213 198 215 224 254 274 279 279 274 284 290 296 297 294 297 310 321 306 308 305 306 308 311 316 307 303 327 339 337 322 303 289 287 141 166 169 210 210 217 190 231 234 225 203 167 146 246 262 272 276 277
333 337 340 337 342 339 346 349 350 352 344 329 324 323 313 310 317 330 329 324 314 306 298 296 319 326 320 313 318 331 342 344 352 328 252 235 243 255 271 281 291 291 290 285 283 277 270 275 281 281 290 297 297 294 297 300 306 305 303 334 350 352 343 319 318 319 8 63 101 185 188 181 203 186 235 220 167 149 153 158 236 257 266 275 281
327 331 333 344 348 346 344 344 346 342 330 324 325 320 318 325 332 335 331 321 308 300 310 343 3 5 18 334 330 358 17 14 10 7 5 301 257 272 278 283 287 288 287 282 272 265 268 271 268 266 266 277 274 280 289 296 305 304 287 291 329 14 329 298 21 351 35 55 78 93 81 269 143 165 182 154 144 133 124 121 247 275 290 289 294
325 331 337 339 339 344 338 335 335 336 333 325 324 324 331 333 334 333 330 321 315 318 334 12 18 17 344 258 328 356 14 24 21 13 12 343 262 270 285 286 292 292 295 285 279 278 273 262 255 259 259 252 264 271 280 293 300 290 298 312 9 29 354 6 61 74 83 76 71 89 84 245 126 132 167 158 154 190 260 268 281 284 289 293 303
322 326 331 337 338 343 339 332 337 346 343 329 326 334 338 338 333 334 330 317 314 322 355 28 29 337 269 356 350 16 28 25 26 24 21 21 325 283 294 297 299 312 292 297 292 274 262 253 250 254 270 256 250 265 282 292 284 273 273 303 340 11 3 12 50 73 84 89 86 84 109 121 118 129 163 168 181 241 262 278 294 298 301 298 301
314 319 325 341 347 340 334 333 339 347 341 333 334 339 339 329 330 335 327 321 325 339 19 48 159 239 47 30 15 24 28 42 38 33 37 32 57 73 349 320 320 313 313 310 305 295 266 251 245 245 242 240 263 273 289 291 287 278 278 290 311 17 15 352 53 71 84 89 77 81 101 114 119 104 172 183 174 244 276 294 299 306 306 305 306
312 322 333 343 354 336 331 334 342 344 335 331 336 334 328 325 327 332 331 327 330 349 17 40 40 18 35 28 11 20 27 29 37 48 52 61 79 78 40 357 337 314 304 297 307 296 261 250 245 239 212 349 287 269 275 292 295 298 299 303 306 321 341 40 62 71 73 76 77 92 107 112 110 140 161 190 218 269 296 301 303 307 308 311 314
318 322 329 340 352 349 333 336 342 340 333 331 336 332 331 332 339 357 354 337 335 345 354 44 43 23 17 20 19 19 19 29 34 50 61 67 71 69 58 26 359 343 316 302 306 301 296 275 283 36 55 78 122 263 270 303 310 297 307 325 337 41 68 56 50 52 56 68 78 95 105 103 187 177 170 195 194 253 307 302 304 306 310 311 317
312 318 330 346 349 354 352 341 338 338 337 338 345 345 337 346 359 2 356 345 336 347 354 31 56 47 19 25 29 30 37 33 31 41 57 66 78 69 53 37 24 13 342 327 323 315 323 346 39 80 114 106 122 68 344 327 309 324 327 321 330 357 40 71 77 78 77 79 84 83 82 88 278 220 195 215 235 243 295 298 301 303 306 311 312
309 325 334 340 347 354 353 2 356 341 341 345 351 345 346 353 1 3 6 358 352 358 6 18 49 52 41 38 47 53 56 55 55 59 58 60 63 60 55 42 38 33 27 7 345 351 345 353 10 31 75 77 81 90 16 332 327 340 333 329 335 349 15 44 71 80 79 75 65 57 64 48 341 299 267 246 230 250 295 298 302 305 311 313 308
319 327 334 346 348 346 352 355 4 5 8 3 354 348 352 356 7 15 15 7 9 7 15 27 42 51 53 54 50 52 54 56 57 60 62 68 68 67 60 48 44 43 42 36 31 29 17 13 17 29 53 66 66 62 45 40 12 342 325 331 344 8 37 18 49 54 51 47 68 73 73 8 350 331 300 253 248 271 281 301 306 311 318 314 307
319 328 339 345 343 338 339 12 25 19 17 49 64 21 354 9 12 18 16 13 22 20 20 26 32 42 50 54 59 57 61 51 53 59 63 61 64 61 53 53 46 38 36 37 34 33 35 30 31 35 44 49 53 52 46 46 46 15 334 333 352 12 14 39 34 33 38 43 42 48 42 6 10 3 350 337 320 286 286 314 323 331 323 309 302
315 336 340 343 339 328 344 36 44 32 45 46 48 47 24 14 22 22 26 28 31 32 25 24 27 40 48 56 62 72 68 75 59 75 71 63 62 72 60 57 48 41 37 37 38 39 40 43 40 38 40 46 52 50 48 51 55 40 358 11 32 36 54 60 43 34 39 34 34 49 21 6 3 10 8 2 5 1 4 348 349 337 326 316 311
328 331 332 346 332 323 338 70 51 37 31 38 51 50 51 21 40 33 31 35 41 41 33 25 35 44 51 55 62 82 90 88 85 86 76 90 84 73 71 64 57 50 47 46 46 44 45 46 45 37 39 39 47 51 56 59 58 50 8 22 44 64 70 64 52 52 48 47 44 46 24 21 18 15 18 18 16 24 21 10 344 339 333 330 340
324 334 328 329 333 322 319 91 108 70 38 74 81 78 62 53 73 75 80 72 66 61 72 74 64 80 68 89 93 88 93 95 92 82 95 86 79 68 68 64 60 57 53 53 50 50 47 47 48 45 40 39 40 66 75 78 79 67 2 2 69 77 69 65 70 50 47 61 54 45 29 29 30 29 25 24 25 18 13 9 357 10 4 358 6
323 324 332 327 326 305 274 173 122 92 35 65 87 75 57 93 83 86 92 80 82 85 91 86 86 81 87 86 88 93 92 95 96 86 83 70 73 66 64 65 67 66 65 63 62 59 57 52 47 41 39 42 60 73 67 76 83 82 65 68 65 68 68 67 71 49 54 56 58 35 35 35 37 37 35 34 32 29 31 37 40 38 30 26 38
327 323 328 322 300 277 267 188 105 86 94 102 102 83 84 95 97 98 94 95 101 97 89 85 78 76 77 83 87 88 85 89 84 75 76 89 84 68 64 66 68 70 71 77 71 66 59 56 51 45 49 55 63 66 72 84 88 104 91 71 74 69 71 73 66 53 53 48 55 35 36 39 43 47 50 51 49 46 45 46 47 48 52 51 54
327 313 317 330 295 307 276 192 146 112 110 129 116 96 102 103 100 96 94 93 82 84 87 78 81 85 84 92 80 81 86 95 93 100 106 95 92 93 87 85 83 81 64 77 73 69 67 64 64 61 63 58 61 64 63 61 69 62 87 91 81 76 71 74 66 58 58 58 57 42 39 45 48 53 57 63 63 62 62 64 65 61 63 62 63
325 314 319 320 310 322 302 205 161 136 133 127 122 118 108 113 106 100 98 91 84 79 79 82 100 93 87 78 80 83 94 98 107 110 108 107 101 98 97 92 87 85 82 82 79 74 75 71 67 65 66 60 55 57 54 50 37 45 63 78 84 76 75 74 66 55 54 58 58 46 47 50 55 58 61 65 67 68 71 69 67 64 64 62 62
326 308 307 315 316 308 293 227 194 157 133 140 143 136 126 122 116 108 104 104 80 79 80 106 125 113 102 88 76 87 90 94 97 100 102 106 106 112 111 106 96 88 84 84 81 78 80 82 81 77 74 66 55 53 48 48 16 27 44 44 49 61 66 60 61 54 52 54 53 39 45 51 54 58 61 63 66 67 67 65 62 61 57 57 59
314 310 313 315 314 308 299 232 204 163 150 150 140 134 138 126 125 125 101 63 68 72 81 110 98 93 86 83 85 87 89 93 99 106 112 110 109 110 105 101 101 96 92 90 84 83 83 84 80 75 67 65 71 52 49 68 48 19 24 28 37 50 53 53 52 49 48 51 55 43 42 47 51 56 57 57 60 62 62 62 61 60 59 58 60
315 315 311 316 323 309 308 250 209 177 154 135 139 143 142 141 134 115 106 85 86 79 49 56 95 83 84 98 103 112 113 99 100 107 109 107 108 105 107 104 104 93 83 79 81 79 79 73 72 76 88 77 66 73 64 44 50 48 56 52 39 35 40 46 45 40 44 48 53 48 37 41 48 52 54 56 57 59 60 61 62 60 60 61 61
312 316 314 312 316 308 306 261 235 186 148 133 153 150 153 155 131 125 129 103 97 93 75 44 30 85 96 119 126 115 112 116 105 108 106 106 103 92 89 92 89 85 72 72 66 63 66 77 95 83 84 76 81 73 71 59 47 54 56 44 57 54 47 44 45 41 39 45 50 50 34 39 41 45 47 51 52 54 57 59 59 59 59 61 63
312 315 312 313 298 315 293 257 224 186 160 162 157 157 156 151 136 146 119 105 114 110 88 87 69 40 70 116 106 121 117 113 110 103 96 95 97 94 87 70 76 81 67 63 63 69 78 80 90 101 95 100 93 84 72 70 62 51 57 60 64 67 70 49 39 39 39 46 50 52 47 34 40 42 43 44 47 51 52 58 59 60 58 60 60
316 317 302 300 309 319 279 251 234 191 158 173 165 160 161 151 143 145 117 122 118 103 107 126 144 102 21 60 94 128 105 97 94 94 95 97 103 97 100 97 77 69 77 77 75 82 79 88 95 87 90 93 77 72 74 64 72 63 62 58 66 63 62 68 42 44 44 46 51 56 58 53 37 38 41 42 46 48 51 51 57 57 59 62 65
307 310 304 311 317 313 258 237 235 194 162 174 171 162 161 147 144 137 125 134 114 113 129 165 119 113 124 100 73 49 78 86 89 96 104 109 114 115 109 103 89 72 62 65 77 83 89 93 88 93 99 94 79 86 78 69 79 83 62 61 69 68 77 74 67 47 42 46 53 56 58 58 55 43 40 45 45 46 46 47 47 53 58 61 63
nan 286 nan 318 308 282 235 221 232 205 165 171 171 164 158 151 144 135 136 131 119 120 173 140 123 110 110 84 81 114 88 93 113 126 92 85 94 107 85 70 66 65 54 63 69 83 94 98 96 100 102 100 90 87 88 87 75 87 86 65 71 72 65 70 71 68 52 45 54 56 58 60 61 63 61 49 50 49 50 48 47 49 52 56 56
nan nan nan 312 315 276 227 219 225 192 163 180 172 166 155 159 141 139 146 127 128 131 167 133 109 108 95 103 115 126 139 131 129 126 132 115 71 72 65 76 64 47 53 69 83 92 95 99 106 102 104 106 95 79 87 86 83 92 95 88 72 73 75 76 75 73 74 60 48 55 58 56 59 63 64 65 58 54 50 50 50 50 51 50 50
320 302 nan 308 321 281 233 235 230 186 173 182 169 168 156 158 146 144 159 121 139 134 161 114 99 86 79 84 311 124 142 191 143 139 136 117 82 45 26 27 37 54 55 80 87 94 100 99 104 103 111 120 114 101 104 89 82 77 78 75 67 72 77 65 65 61 61 70 69 54 58 62 58 58 55 60 60 57 49 49 49 49 49 47 46
318 nan nan 301 317 287 224 254 229 183 182 190 175 167 161 159 145 146 171 126 143 137 148 119 109 88 125 162 237 264 207 224 161 112 104 109 109 54 9 30 46 61 77 80 86 82 89 89 94 113 116 108 105 104 84 91 86 78 65 79 87 86 75 80 68 67 56 56 60 47 43 50 58 48 57 53 54 55 51 48 47 46 45 45 43
308 306 nan nan 322 285 239 232 206 190 188 185 179 175 170 166 165 160 186 139 140 141 141 145 141 183 184 214 217 255 279 290 5 180 159 130 100 60 62 56 67 78 90 101 92 82 81 88 85 105 116 123 117 115 102 99 93 93 92 79 72 63 68 72 75 57 65 67 65 47 43 36 44 41 47 48 44 43 49 47 45 42 44 44 42
305 307 nan 281 301 273 217 224 201 192 199 190 187 183 189 172 173 172 187 154 158 157 158 163 163 223 211 244 236 257 270 330 333 324 49 77 84 75 70 79 83 88 85 89 93 87 86 93 114 120 133 111 111 112 105 103 104 104 90 80 78 70 61 61 67 72 66 60 57 50 35 40 44 35 35 41 33 33 33 41 46 49 47 40 40
309 278 303 288 260 275 210 218 199 199 201 199 191 187 197 170 187 187 197 160 155 167 182 161 155 222 264 241 210 234 291 123 339 340 34 92 124 103 128 92 92 84 77 70 71 77 80 88 118 132 132 136 120 115 126 109 111 125 105 74 64 64 66 65 61 60 55 nan 75 88 52 52 40 42 33 27 31 24 29 34 40 42 39 35 35
299 279 301 296 249 nan 214 222 203 201 201 201 194 193 206 191 197 204 217 181 160 175 186 178 162 233 254 235 196 229 222 128 132 150 112 113 134 135 131 116 89 82 78 70 63 65 76 82 103 115 122 124 124 134 117 126 136 122 114 87 66 52 53 73 69 52 58 64 58 63 68 40 48 74 72 78 65 24 33 40 43 36 33 37 41
286 280 300 291 246 nan 218 218 205 207 204 208 200 197 204 203 214 205 233 217 177 187 173 182 207 248 220 227 169 205 184 161 147 138 122 116 127 117 106 107 103 94 77 78 71 63 69 83 76 89 92 111 113 121 105 120 113 92 78 83 47 50 39 48 50 42 68 50 41 52 50 36 32 30 46 56 60 47 41 52 58 25 40 40 41
308 290 282 282 250 nan 209 213 207 211 206 215 204 201 208 212 214 216 239 238 211 207 196 178 182 260 230 206 154 182 157 144 133 116 119 109 103 99 92 78 86 82 72 79 73 72 68 65 73 81 100 105 118 128 129 119 104 100 105 72 49 34 67 78 76 47 28 56 45 32 44 31 3 40 39 46 51 47 43 49 56 52 51 44 38
299 285 289 279 247 230 206 215 210 214 209 220 207 212 212 224 220 213 220 257 233 224 209 192 159 240 239 202 161 163 137 135 116 105 114 108 114 119 134 125 103 111 81 81 76 66 67 71 78 81 89 93 89 128 136 114 120 123 46 63 31 36 31 57 46 59 45 47 38 36 nan 7 9 28 51 54 43 42 43 33 47 47 52 54 51
302 291 280 275 234 252 211 220 210 216 211 223 214 215 209 229 211 213 180 245 248 226 206 201 159 209 226 192 152 152 140 133 126 117 127 135 122 128 125 116 125 103 98 49 58 71 55 69 66 69 79 108 129 132 127 123 107 126 115 92 81 49 57 23 26 54 39 nan nan 9 nan nan 5 32 50 56 46 59 48 28 36 43 45 44 54
291 277 263 264 245 238 221 219 211 213 218 226 216 214 207 228 214 215 214 222 250 236 210 201 185 179 202 219 181 135 142 133 147 131 130 144 139 134 144 118 131 127 128 82 91 113 65 63 56 80 83 107 145 142 121 133 131 96 121 63 32 45 52 73 26 42 65 70 107 351 17 44 3 28 42 36 44 45 62 21 33 35 38 36 40
287 266 250 251 245 241 226 222 215 213 220 226 221 213 214 222 219 221 220 208 235 221 202 195 204 191 173 220 192 160 166 136 141 147 144 156 151 137 125 118 138 129 108 123 81 83 85 88 110 105 89 111 92 120 109 128 109 81 67 66 32 84 137 14 10 14 28 53 45 64 19 35 23 14 37 43 28 39 45 25 35 28 31 37 35
288 276 252 246 243 244 237 223 217 216 220 229 226 218 218 222 227 225 228 224 216 218 214 190 211 212 179 196 198 178 178 152 157 173 159 170 152 137 132 131 132 110 116 64 70 344 183 121 96 113 12 53 101 29 146 81 85 66 33 82 5 307 105 35 330 354 358 22 39 73 69 32 56 34 28 39 20 27 32 38 35 21 30 40 29
295 284 262 237 234 242 242 228 223 219 223 240 231 227 219 227 233 232 232 224 220 218 207 184 200 214 212 183 214 193 192 170 159 178 167 165 150 149 137 133 138 134 115 93 93 338 5 62 306 19 15 44 31 5 22 30 30 54 347 31 73 7 2 4 332 20 12 22 43 35 62 103 92 77 97 nan 64 10 21 29 40 35 23 27 30
294 281 269 248 241 238 247 240 230 221 227 241 233 233 233 230 234 240 250 238 220 222 209 195 197 207 208 203 197 210 200 177 166 165 186 158 167 147 134 119 121 109 114 110 76 350 322 354 31 23 27 16 32 25 36 23 14 25 24 340 348 15 10 12 0 16 14 26 34 53 52 45 56 81 62 54 72 68 30 28 33 40 25 22 26
293 291 282 263 253 247 250 249 236 225 229 239 237 242 239 236 240 247 260 263 240 225 225 221 205 209 199 204 193 194 196 185 169 169 169 162 150 136 111 104 110 105 126 127 125 86 341 348 2 7 18 5 24 28 28 21 8 7 22 1 4 8 7 23 37 34 44 27 54 73 77 99 73 48 64 46 49 55 38 24 39 39 28 26 26